Wind_Speed
16 17 19 21 22 25 29 31 34 36 37 37 38 37 36 34 33 32 31 30 28 27 29 32 33 32 31 30 29 28 28 28 28 28 28 28 29 30 32 33 34 35 36 37
10 12 14 16 19 22 26 28 30 32 32 32 33 33 33 33 31 30 30 30 30 31 33 35 35 32 31 30 29 29 30 30 29 29 30 31 32 33 34 35 36 36 36 37
6 8 10 13 16 19 23 26 28 29 29 29 31 31 31 31 31 31 31 32 33 35 36 35 33 30 29 30 31 32 31 30 30 30 30 30 31 32 34 36 37 38 39 39
7 9 12 14 16 17 19 21 23 25 26 28 30 32 32 33 34 35 36 36 37 37 35 32 29 28 29 31 31 31 29 28 28 28 27 26 27 29 31 33 35 36 38 40
8 10 12 13 15 17 18 19 20 20 22 25 29 33 33 33 36 39 39 38 36 34 31 28 26 27 29 30 29 28 26 25 23 22 22 22 24 26 29 32 34 35 36 38
4 5 6 8 10 11 12 14 15 16 18 20 23 25 25 26 28 31 31 30 28 26 25 25 26 27 28 27 26 25 24 22 20 20 21 23 25 26 29 31 33 35 35 36
3 4 5 7 9 10 11 13 15 16 17 17 19 20 19 19 20 22 23 23 23 24 24 25 25 25 26 26 25 24 22 21 22 23 25 27 28 30 31 32 34 35 36 36
3 5 7 9 10 10 12 14 16 17 17 16 19 19 18 19 19 21 22 23 23 24 23 22 22 23 25 25 24 23 23 24 26 28 30 31 32 34 35 35 36 37 37 37
6 6 10 12 11 11 12 13 15 18 18 18 18 19 19 20 20 21 23 23 22 20 19 19 21 23 25 26 26 26 27 29 31 33 34 35 36 37 37 37 37 37 38 39
8 8 10 12 12 11 11 12 14 17 20 19 17 18 20 20 21 22 23 23 23 22 22 23 25 27 28 30 31 32 33 34 35 36 36 38 39 39 39 39 38 38 38 39
10 11 12 15 15 15 15 16 17 19 22 24 22 19 20 22 24 26 27 28 28 29 29 30 32 33 35 36 37 38 38 37 37 37 37 39 40 41 41 40 39 38 38 39
13 13 14 17 18 18 19 21 23 25 25 26 27 26 25 26 28 30 32 33 34 35 36 37 39 40 41 42 43 43 44 43 42 41 40 40 42 42 41 40 39 38 38 38
13 14 14 15 19 21 22 24 26 28 28 28 29 31 32 33 33 34 36 37 39 40 42 43 44 46 47 47 48 48 49 49 48 46 45 43 43 42 41 40 39 38 38 38
14 14 17 20 22 23 23 23 26 30 31 31 31 32 35 36 37 38 40 41 43 44 46 48 49 51 51 51 52 52 52 53 53 52 50 47 44 43 43 42 41 39 38 38
17 17 18 20 23 24 24 24 24 26 29 32 32 32 34 36 38 41 43 45 47 49 51 53 54 56 57 57 57 57 57 58 59 58 56 51 48 46 45 45 44 42 40 39
21 21 21 22 24 25 26 27 28 29 30 33 34 36 38 40 42 44 47 50 52 54 56 58 60 62 63 62 60 59 59 60 60 60 58 55 54 52 50 49 47 46 43 40
23 25 26 25 25 26 28 29 31 32 34 36 38 39 40 42 43 47 50 53 55 57 59 62 63 63 64 64 63 63 62 62 63 64 64 63 61 59 57 54 51 47 45 42
27 28 29 29 29 32 33 34 35 37 39 39 39 40 42 46 48 50 53 55 56 57 60 63 65 66 68 70 72 73 71 70 72 73 72 71 69 65 62 58 53 49 46 43
28 29 30 32 32 34 36 38 40 41 42 43 43 46 49 53 55 56 61 66 70 73 75 77 79 81 82 84 85 86 84 82 81 79 77 75 71 67 63 59 55 51 48 45
29 30 32 33 34 35 37 39 40 44 46 47 50 53 57 60 64 65 68 72 75 78 81 83 85 86 87 88 90 89 88 86 83 79 75 70 65 60 57 55 53 51 49 46
26 28 29 31 33 35 36 39 43 46 51 55 59 63 66 70 73 75 77 79 81 82 84 85 85 85 84 83 83 83 81 78 74 68 61 54 48 45 44 45 47 48 47 46
28 29 30 31 33 36 39 43 47 53 58 63 67 72 76 79 81 83 84 83 82 79 76 73 71 68 64 62 61 60 58 54 50 44 38 35 32 31 34 36 40 44 45 44
30 31 32 34 37 42 47 51 56 61 67 71 76 79 82 84 84 82 78 73 68 63 58 54 51 47 43 42 43 43 40 37 33 30 28 27 28 29 30 33 37 41 43 41
30 33 36 40 44 48 53 58 63 68 74 78 81 82 82 79 74 67 62 57 53 48 44 41 40 38 36 35 36 36 35 33 30 29 29 30 31 31 31 32 34 40 44 40
35 39 42 46 50 53 58 64 69 75 79 81 80 77 72 65 60 57 53 48 44 41 39 40 41 41 40 40 38 36 37 37 36 36 34 34 34 33 32 31 32 38 45 43
38 41 46 50 54 59 64 69 75 79 80 78 74 65 57 53 51 48 46 45 44 44 45 46 47 48 48 47 45 43 41 41 41 40 39 37 35 34 33 30 31 37 44 44
Wind_Direction
219 222 226 231 234 238 242 246 249 253 257 260 262 263 264 262 260 261 262 263 269 280 288 296 301 302 301 301 302 305 307 305 302 302 304 303 301 298 294 291 288 286 284 282
222 226 230 237 240 242 245 246 248 250 251 254 257 258 259 258 258 259 262 269 278 286 292 298 300 299 298 300 304 308 309 309 306 304 303 303 302 300 298 295 292 289 286 283
249 247 251 250 250 250 250 250 250 250 249 250 253 256 258 262 264 267 271 277 283 289 293 294 293 292 294 299 304 308 310 312 311 310 309 308 307 306 305 302 298 293 289 285
269 266 260 258 259 261 259 259 259 258 256 253 255 256 257 261 265 269 272 277 282 286 287 285 284 286 293 299 303 307 310 312 313 314 315 316 317 317 316 313 307 300 293 287
268 263 259 258 263 268 271 273 272 271 268 264 261 262 263 261 263 268 271 275 278 278 278 277 281 288 293 297 301 303 304 305 308 312 316 320 323 325 325 324 319 312 303 295
283 280 274 271 277 281 284 286 287 286 283 278 274 272 272 268 266 268 271 272 272 271 273 278 283 287 290 293 295 294 294 296 301 306 311 315 317 320 324 326 326 322 315 305
342 318 294 284 286 285 291 296 295 294 292 288 284 282 283 278 275 273 272 271 270 270 274 277 280 282 283 284 285 285 287 292 297 301 305 309 312 316 319 322 325 326 322 314
307 313 309 301 299 293 292 295 295 293 291 288 285 286 287 282 278 276 275 274 273 273 274 275 276 274 273 275 278 283 289 295 300 303 307 310 312 315 318 320 323 326 326 321
317 303 306 308 310 304 300 296 293 291 290 289 285 285 283 281 279 278 278 278 277 278 279 277 272 270 272 277 284 292 298 300 303 306 309 310 311 314 316 317 320 323 326 325
343 327 312 318 319 318 311 305 300 296 297 297 292 288 285 284 284 282 283 286 287 286 285 284 284 285 289 294 299 302 303 303 304 306 307 308 309 311 312 314 315 318 322 325
344 335 329 323 326 321 316 311 307 303 303 304 303 299 296 294 291 288 286 287 287 287 288 290 292 293 296 299 301 302 302 302 303 304 305 306 307 308 309 310 313 315 318 322
340 333 326 320 323 322 318 316 313 310 309 307 305 305 299 294 290 287 286 286 286 288 290 291 293 294 295 297 299 301 301 301 301 301 303 305 306 306 306 308 309 311 314 317
339 331 321 313 315 318 317 315 311 309 309 309 309 308 301 297 294 292 291 290 289 289 289 290 290 291 293 295 296 297 297 297 298 298 300 302 302 302 303 304 306 309 311 313
334 330 321 316 313 313 312 309 305 305 306 306 305 301 298 297 298 296 294 292 290 288 287 287 287 288 289 290 291 292 294 294 295 295 296 297 298 298 299 301 303 306 307 308
324 322 318 314 310 309 306 302 299 298 300 301 300 296 295 294 293 291 290 288 287 286 285 285 285 286 286 286 287 288 289 291 291 291 291 293 294 296 297 297 299 301 302 303
317 317 317 314 311 309 306 302 299 298 298 297 296 294 294 292 291 289 288 286 285 284 284 283 284 284 283 282 282 282 284 286 287 287 287 289 291 293 293 292 293 294 295 296
313 314 314 315 311 308 305 303 303 302 302 301 300 299 299 297 296 294 292 288 285 283 281 279 277 275 274 275 276 279 282 283 284 285 285 287 289 289 288 287 286 286 287 287
316 316 315 315 312 311 310 308 309 310 309 307 305 304 302 298 294 292 288 284 283 282 281 280 278 277 277 279 281 282 282 282 282 283 284 284 284 284 283 281 279 278 278 278
317 315 315 315 314 313 314 316 317 316 314 313 309 304 299 295 292 288 285 284 284 284 283 282 281 281 281 281 282 283 283 282 282 281 281 282 281 280 278 275 272 269 268 267
319 317 316 316 316 316 318 318 319 317 313 312 307 303 300 297 294 292 288 286 285 284 284 284 284 284 284 284 284 283 283 282 282 282 282 281 280 277 273 268 263 259 259 257
317 317 318 319 319 320 322 321 319 313 313 312 309 307 304 301 299 297 293 290 289 288 287 287 287 286 286 286 286 285 284 283 282 280 279 276 273 270 267 263 255 248 247 247
326 326 326 326 326 324 323 321 318 315 315 313 311 309 306 303 301 298 296 295 294 294 293 293 293 293 293 292 291 290 288 285 279 273 267 262 261 264 265 262 253 239 235 236
331 331 331 330 327 325 323 321 319 318 316 314 312 309 306 304 303 302 302 302 301 300 298 297 297 298 298 297 296 295 291 285 275 263 257 258 262 269 274 268 254 238 229 225
333 332 330 328 327 325 323 321 320 319 317 315 313 311 310 310 310 311 311 310 307 304 301 300 300 300 300 299 298 297 293 287 277 268 265 266 269 272 276 271 257 239 225 219
333 332 330 329 328 326 324 323 321 320 318 316 315 315 315 315 316 316 316 316 314 311 306 302 301 300 298 296 294 292 288 283 278 274 271 269 269 272 272 268 257 238 223 217
334 333 332 331 329 327 326 324 323 321 320 319 318 319 319 319 320 320 321 319 316 312 307 303 300 298 296 293 290 287 283 278 275 272 271 268 268 269 267 263 253 236 222 212
Height
5859 5862 5863 5865 5867 5868 5869 5870 5871 5871 5872 5872 5873 5873 5874 5875 5875 5874 5874 5873 5872 5871 5870 5868 5865 5861 5858 5856 5853 5851 5849 5846 5844 5843 5841 5839 5838 5836 5833 5831 5829 5826 5824 5822
5860 5860 5861 5862 5863 5864 5864 5865 5866 5866 5866 5866 5866 5867 5867 5867 5868 5868 5867 5867 5866 5865 5863 5861 5858 5855 5852 5850 5847 5845 5842 5840 5837 5835 5834 5832 5830 5828 5826 5824 5821 5818 5816 5813
5859 5860 5860 5860 5860 5861 5861 5862 5862 5862 5862 5862 5862 5862 5861 5861 5861 5861 5861 5860 5860 5859 5857 5855 5853 5850 5847 5844 5841 5839 5836 5833 5831 5828 5826 5824 5822 5820 5818 5815 5812 5809 5806 5804
5858 5859 5859 5859 5859 5859 5859 5859 5859 5858 5859 5858 5859 5857 5858 5856 5856 5855 5855 5855 5855 5853 5852 5849 5847 5844 5842 5839 5836 5833 5830 5828 5825 5823 5820 5818 5816 5813 5810 5806 5803 5799 5795 5793
5857 5857 5857 5857 5857 5856 5856 5856 5855 5855 5854 5854 5853 5852 5853 5853 5852 5851 5850 5849 5849 5848 5846 5844 5842 5839 5837 5834 5831 5828 5825 5823 5821 5818 5816 5813 5810 5807 5803 5798 5794 5790 5786 5782
5856 5856 5856 5855 5855 5854 5853 5853 5851 5850 5850 5849 5847 5847 5847 5847 5846 5845 5844 5843 5843 5842 5841 5839 5837 5835 5832 5829 5826 5823 5820 5818 5815 5813 5810 5807 5804 5800 5797 5792 5787 5782 5777 5772
5855 5855 5854 5853 5853 5852 5851 5850 5849 5847 5846 5845 5843 5842 5843 5841 5841 5840 5839 5839 5838 5837 5836 5834 5832 5830 5827 5824 5821 5818 5815 5813 5810 5807 5804 5800 5797 5793 5789 5785 5780 5775 5770 5765
5855 5854 5853 5852 5851 5849 5848 5848 5847 5845 5843 5842 5840 5838 5839 5837 5836 5835 5834 5833 5832 5831 5830 5829 5827 5824 5820 5817 5815 5812 5809 5806 5803 5800 5796 5793 5789 5785 5781 5777 5772 5768 5763 5757
5854 5853 5851 5849 5848 5847 5846 5844 5843 5841 5839 5838 5836 5835 5834 5832 5831 5830 5829 5827 5826 5825 5823 5821 5818 5815 5812 5810 5807 5804 5801 5798 5794 5791 5787 5784 5780 5777 5773 5769 5764 5760 5755 5749
5852 5851 5849 5848 5846 5845 5843 5841 5839 5837 5834 5833 5832 5831 5829 5828 5826 5825 5823 5821 5819 5817 5814 5812 5809 5806 5803 5800 5796 5793 5791 5788 5785 5781 5778 5775 5772 5768 5765 5761 5757 5752 5747 5742
5849 5849 5847 5845 5843 5842 5840 5838 5836 5833 5831 5828 5826 5829 5825 5823 5821 5819 5816 5813 5810 5807 5804 5801 5798 5795 5792 5789 5786 5783 5780 5778 5775 5772 5769 5766 5762 5759 5756 5752 5748 5744 5740 5735
5848 5846 5844 5842 5840 5838 5836 5834 5832 5829 5827 5824 5821 5823 5819 5816 5813 5811 5808 5804 5801 5798 5794 5791 5788 5784 5781 5778 5775 5772 5769 5766 5763 5761 5759 5756 5753 5750 5747 5744 5740 5736 5732 5728
5846 5844 5842 5840 5839 5836 5833 5830 5826 5823 5821 5818 5816 5816 5809 5807 5804 5801 5798 5794 5790 5787 5783 5779 5776 5773 5770 5767 5764 5760 5757 5754 5751 5749 5747 5745 5742 5740 5737 5734 5731 5728 5725 5721
5845 5843 5841 5838 5834 5832 5829 5826 5822 5818 5814 5812 5810 5806 5800 5796 5793 5790 5786 5782 5778 5774 5771 5767 5763 5760 5756 5753 5750 5747 5744 5741 5738 5736 5734 5733 5731 5729 5727 5725 5722 5719 5716 5713
5842 5840 5837 5834 5830 5827 5824 5821 5818 5814 5809 5805 5802 5797 5793 5788 5784 5779 5775 5770 5766 5762 5757 5753 5749 5745 5741 5738 5735 5732 5729 5726 5724 5721 5720 5719 5718 5717 5716 5714 5712 5710 5708 5705
5838 5836 5833 5830 5826 5822 5819 5815 5812 5808 5803 5798 5794 5789 5784 5779 5775 5770 5764 5759 5753 5748 5743 5738 5733 5728 5724 5721 5718 5715 5712 5710 5707 5705 5704 5703 5703 5702 5703 5702 5701 5700 5698 5696
5834 5831 5828 5825 5821 5817 5814 5809 5805 5801 5796 5791 5785 5781 5775 5769 5764 5758 5751 5745 5738 5733 5727 5721 5716 5710 5706 5702 5699 5696 5694 5692 5690 5688 5687 5686 5686 5686 5686 5687 5687 5687 5687 5686
5829 5826 5822 5819 5816 5811 5808 5801 5797 5791 5786 5781 5775 5769 5763 5757 5751 5744 5736 5729 5722 5715 5709 5703 5697 5692 5687 5682 5678 5674 5672 5671 5669 5668 5666 5666 5666 5666 5667 5669 5671 5672 5673 5673
5824 5820 5816 5812 5808 5803 5798 5792 5787 5781 5775 5770 5765 5758 5752 5744 5738 5732 5721 5713 5705 5697 5689 5683 5676 5670 5665 5658 5652 5649 5648 5646 5644 5642 5641 5642 5642 5644 5645 5648 5651 5654 5657 5659
5819 5815 5810 5805 5800 5796 5793 5785 5778 5773 5765 5760 5753 5745 5737 5728 5720 5715 5703 5692 5682 5672 5664 5655 5648 5643 5637 5630 5623 5620 5620 5618 5616 5615 5615 5616 5617 5619 5622 5625 5630 5635 5640 5644
5815 5810 5805 5800 5794 5789 5784 5778 5771 5764 5757 5747 5736 5726 5716 5706 5696 5687 5676 5665 5655 5646 5638 5629 5622 5617 5612 5605 5597 5593 5593 5591 5589 5588 5589 5591 5594 5596 5599 5603 5608 5614 5621 5627
5809 5805 5800 5794 5789 5785 5777 5769 5761 5752 5740 5729 5718 5707 5694 5683 5671 5659 5648 5637 5627 5617 5609 5600 5593 5589 5585 5578 5571 5567 5566 5564 5563 5565 5568 5572 5575 5578 5581 5584 5588 5595 5602 5610
5803 5798 5793 5788 5783 5774 5765 5756 5747 5735 5724 5712 5699 5686 5671 5656 5644 5632 5620 5610 5601 5593 5586 5580 5574 5570 5567 5562 5556 5552 5550 5547 5548 5550 5554 5558 5561 5563 5566 5568 5572 5578 5585 5593
5799 5793 5787 5781 5774 5766 5756 5745 5734 5721 5707 5693 5677 5661 5645 5629 5617 5607 5598 5590 5582 5575 5569 5564 5560 5556 5553 5549 5545 5541 5539 5537 5537 5540 5543 5546 5548 5550 5551 5553 5556 5561 5569 5577
5794 5787 5780 5773 5765 5756 5746 5733 5719 5705 5688 5671 5655 5639 5624 5610 5600 5591 5583 5575 5568 5562 5557 5552 5547 5542 5539 5535 5532 5529 5527 5525 5526 5527 5530 5532 5534 5536 5537 5539 5541 5546 5554 5564
5789 5782 5773 5765 5754 5743 5732 5718 5703 5686 5669 5651 5635 5622 5611 5599 5589 5580 5572 5565 5558 5551 5545 5538 5532 5527 5522 5518 5515 5513 5512 5511 5511 5512 5515 5518 5520 5522 5524 5527 5529 5534 5541 5552